Year,Month,Day,Hour,Minute,Value (Times are PST for temperature in C)
2015,07,08,00,00,16.60
2015,07,08,00,01,16.60
2015,07,08,00,02,16.60
2015,07,08,00,03,16.50
2015,07,08,00,04,16.50
2015,07,08,00,05,16.50
2015,07,08,00,06,16.40
2015,07,08,00,07,16.40
2015,07,08,00,08,16.40
2015,07,08,00,09,16.40
2015,07,08,00,10,16.40
2015,07,08,00,11,16.30
2015,07,08,00,12,16.30
2015,07,08,00,13,16.30
2015,07,08,00,14,16.30
2015,07,08,00,15,16.20
2015,07,08,00,16,16.20
2015,07,08,00,17,16.20
2015,07,08,00,18,16.20
2015,07,08,00,19,16.10
2015,07,08,00,20,16.10
2015,07,08,00,21,16.10
2015,07,08,00,22,16.10
2015,07,08,00,23,16.00
2015,07,08,00,24,16.00
2015,07,08,00,25,16.00
2015,07,08,00,26,16.00
2015,07,08,00,27,15.90
2015,07,08,00,28,15.90
2015,07,08,00,29,15.90
2015,07,08,00,30,15.90
2015,07,08,00,31,15.90
2015,07,08,00,32,15.90
2015,07,08,00,33,15.80
2015,07,08,00,34,15.80
2015,07,08,00,35,15.80
2015,07,08,00,36,15.80
2015,07,08,00,37,15.80
2015,07,08,00,38,15.80
2015,07,08,00,39,15.70
2015,07,08,00,40,15.70
2015,07,08,00,41,15.70
2015,07,08,00,42,15.70
2015,07,08,00,43,15.70
2015,07,08,00,44,15.70
2015,07,08,00,45,15.70
2015,07,08,00,46,15.70
2015,07,08,00,47,15.70
2015,07,08,00,48,15.60
2015,07,08,00,49,15.60
2015,07,08,00,50,15.60
2015,07,08,00,51,15.60
2015,07,08,00,52,15.60
2015,07,08,00,53,15.50
2015,07,08,00,54,15.50
2015,07,08,00,55,15.50
2015,07,08,00,56,15.50
2015,07,08,00,57,15.40
2015,07,08,00,58,15.40
2015,07,08,00,59,15.40
2015,07,08,01,00,15.40
2015,07,08,01,01,15.40
2015,07,08,01,02,15.40
2015,07,08,01,03,15.40
2015,07,08,01,04,15.40
2015,07,08,01,05,15.40
2015,07,08,01,06,15.40
2015,07,08,01,07,15.30
2015,07,08,01,08,15.30
2015,07,08,01,09,15.30
2015,07,08,01,10,15.30
2015,07,08,01,11,15.30
2015,07,08,01,12,15.30
2015,07,08,01,13,15.20
2015,07,08,01,14,15.20
2015,07,08,01,15,15.20
2015,07,08,01,16,15.20
2015,07,08,01,17,15.20
2015,07,08,01,18,15.20
2015,07,08,01,19,15.20
2015,07,08,01,20,15.20
2015,07,08,01,21,15.10
2015,07,08,01,22,15.10
2015,07,08,01,23,15.10
2015,07,08,01,24,15.10
2015,07,08,01,25,15.10
2015,07,08,01,26,15.10
2015,07,08,01,27,15.10
2015,07,08,01,28,15.10
2015,07,08,01,29,15.10
2015,07,08,01,30,15.00
2015,07,08,01,31,15.00
2015,07,08,01,32,15.00
2015,07,08,01,33,15.00
2015,07,08,01,34,15.00
2015,07,08,01,35,15.00
2015,07,08,01,36,15.00
2015,07,08,01,37,15.00
2015,07,08,01,38,15.00
2015,07,08,01,39,14.90
2015,07,08,01,40,14.90
2015,07,08,01,41,14.90
2015,07,08,01,42,14.90
2015,07,08,01,43,14.90
2015,07,08,01,44,14.90
2015,07,08,01,45,14.90
2015,07,08,01,46,14.90
2015,07,08,01,47,14.90
2015,07,08,01,48,14.90
2015,07,08,01,49,14.90
2015,07,08,01,50,14.90
2015,07,08,01,51,14.80
2015,07,08,01,52,14.80
2015,07,08,01,53,14.80
2015,07,08,01,54,14.80
2015,07,08,01,55,14.80
2015,07,08,01,56,14.80
2015,07,08,01,57,14.80
2015,07,08,01,58,14.80
2015,07,08,01,59,14.80
2015,07,08,02,00,14.70
2015,07,08,02,01,14.70
2015,07,08,02,02,14.70
2015,07,08,02,03,14.70
2015,07,08,02,04,14.70
2015,07,08,02,05,14.70
2015,07,08,02,06,14.70
2015,07,08,02,07,14.70
2015,07,08,02,08,14.70
2015,07,08,02,09,14.70
2015,07,08,02,10,14.70
2015,07,08,02,11,14.60
2015,07,08,02,12,14.60
2015,07,08,02,13,14.60
2015,07,08,02,14,14.60
2015,07,08,02,15,14.60
2015,07,08,02,16,14.60
2015,07,08,02,17,14.60
2015,07,08,02,18,14.60
2015,07,08,02,19,14.50
2015,07,08,02,20,14.50
2015,07,08,02,21,14.50
2015,07,08,02,22,14.50
2015,07,08,02,23,14.40
2015,07,08,02,24,14.40
2015,07,08,02,25,14.40
2015,07,08,02,26,14.40
2015,07,08,02,27,14.40
2015,07,08,02,28,14.40
2015,07,08,02,29,14.40
2015,07,08,02,30,14.30
2015,07,08,02,31,14.30
2015,07,08,02,32,14.30
2015,07,08,02,33,14.30
2015,07,08,02,34,14.30
2015,07,08,02,35,14.30
2015,07,08,02,36,14.30
2015,07,08,02,37,14.30
2015,07,08,02,38,14.30
2015,07,08,02,39,14.30
2015,07,08,02,40,14.40
2015,07,08,02,41,14.40
2015,07,08,02,42,14.40
2015,07,08,02,43,14.40
2015,07,08,02,44,14.40
2015,07,08,02,45,14.40
2015,07,08,02,46,14.30
2015,07,08,02,47,14.30
2015,07,08,02,48,14.30
2015,07,08,02,49,14.30
2015,07,08,02,50,14.40
2015,07,08,02,51,14.40
2015,07,08,02,52,14.40
2015,07,08,02,53,14.40
2015,07,08,02,54,14.40
2015,07,08,02,55,14.40
2015,07,08,02,56,14.40
2015,07,08,02,57,14.40
2015,07,08,02,58,14.40
2015,07,08,02,59,14.40
2015,07,08,03,00,14.40
2015,07,08,03,01,14.40
2015,07,08,03,02,14.40
2015,07,08,03,06,14.30
2015,07,08,03,07,14.30
2015,07,08,03,08,14.30
2015,07,08,03,09,14.30
2015,07,08,03,10,14.20
2015,07,08,03,11,14.20
2015,07,08,03,12,14.20
2015,07,08,03,13,14.20
2015,07,08,03,14,14.20
2015,07,08,03,15,14.20
2015,07,08,03,16,14.10
2015,07,08,03,17,14.10
2015,07,08,03,18,14.10
2015,07,08,03,19,14.10
2015,07,08,03,20,14.10
2015,07,08,03,21,14.00
2015,07,08,03,22,14.00
2015,07,08,03,23,14.00
2015,07,08,03,24,14.00
2015,07,08,03,25,13.90
2015,07,08,03,26,13.90
2015,07,08,03,27,13.90
2015,07,08,03,28,13.90
2015,07,08,03,29,13.90
2015,07,08,03,30,13.90
2015,07,08,03,31,13.90
2015,07,08,03,32,13.80
2015,07,08,03,33,13.80
2015,07,08,03,34,13.80
2015,07,08,03,35,13.80
2015,07,08,03,36,13.80
2015,07,08,03,37,13.80
2015,07,08,03,38,13.70
2015,07,08,03,39,13.70
2015,07,08,03,40,13.70
2015,07,08,03,41,13.70
2015,07,08,03,42,13.70
2015,07,08,03,43,13.70
2015,07,08,03,44,13.70
2015,07,08,03,45,13.60
2015,07,08,03,46,13.60
2015,07,08,03,47,13.60
2015,07,08,03,48,13.60
2015,07,08,03,49,13.60
2015,07,08,03,50,13.60
2015,07,08,03,51,13.60
2015,07,08,03,52,13.50
2015,07,08,03,53,13.50
2015,07,08,03,54,13.50
2015,07,08,03,55,13.50
2015,07,08,03,56,13.50
2015,07,08,03,57,13.50
2015,07,08,03,58,13.40
2015,07,08,03,59,13.40
2015,07,08,04,00,13.40
2015,07,08,04,01,13.40
2015,07,08,04,02,13.40
2015,07,08,04,03,13.40
2015,07,08,04,04,13.50
2015,07,08,04,05,13.50
2015,07,08,04,06,13.50
2015,07,08,04,07,13.60
2015,07,08,04,08,13.60
2015,07,08,04,09,13.60
2015,07,08,04,10,13.70
2015,07,08,04,11,13.70
2015,07,08,04,12,13.70
2015,07,08,04,13,13.70
2015,07,08,04,14,13.70
2015,07,08,04,15,13.60
2015,07,08,04,16,13.60
2015,07,08,04,17,13.60
2015,07,08,04,18,13.60
2015,07,08,04,19,13.50
2015,07,08,04,20,13.50
2015,07,08,04,21,13.50
2015,07,08,04,22,13.50
2015,07,08,04,23,13.40
2015,07,08,04,24,13.40
2015,07,08,04,25,13.50
2015,07,08,04,26,13.40
2015,07,08,04,27,13.40
2015,07,08,04,28,13.40
2015,07,08,04,29,13.40
2015,07,08,04,30,13.40
2015,07,08,04,31,13.40
2015,07,08,04,32,13.40
2015,07,08,04,33,13.40
2015,07,08,04,34,13.30
2015,07,08,04,35,13.30
2015,07,08,04,36,13.30
2015,07,08,04,37,13.30
2015,07,08,04,38,13.30
2015,07,08,04,39,13.30
2015,07,08,04,40,13.30
2015,07,08,04,41,13.30
2015,07,08,04,42,13.30
2015,07,08,04,43,13.30
2015,07,08,04,44,13.30
2015,07,08,04,45,13.30
2015,07,08,04,46,13.30
2015,07,08,04,47,13.20
2015,07,08,04,48,13.20
2015,07,08,04,49,13.20
2015,07,08,04,50,13.20
2015,07,08,04,51,13.20
2015,07,08,04,52,13.20
2015,07,08,04,53,13.20
2015,07,08,04,54,13.10
2015,07,08,04,55,13.10
2015,07,08,04,56,13.10
2015,07,08,04,57,13.10
2015,07,08,04,58,13.10
2015,07,08,04,59,13.10
2015,07,08,05,00,13.10
2015,07,08,05,01,13.10
2015,07,08,05,02,13.10
2015,07,08,05,03,13.00
2015,07,08,05,04,13.00
2015,07,08,05,05,13.00
2015,07,08,05,06,13.00
2015,07,08,05,07,13.00
2015,07,08,05,08,13.00
2015,07,08,05,09,12.90
2015,07,08,05,10,12.90
2015,07,08,05,11,12.90
2015,07,08,05,12,12.90
2015,07,08,05,13,12.90
2015,07,08,05,14,12.90
2015,07,08,05,15,12.90
2015,07,08,05,16,12.90
2015,07,08,05,17,12.90
2015,07,08,05,18,12.90
2015,07,08,05,19,12.90
2015,07,08,05,20,12.80
2015,07,08,05,21,12.80
2015,07,08,05,22,12.80
2015,07,08,05,23,12.80
2015,07,08,05,24,12.80
2015,07,08,05,25,12.80
2015,07,08,05,26,12.80
2015,07,08,05,27,12.80
2015,07,08,05,28,12.80
2015,07,08,05,29,12.80
2015,07,08,05,30,12.80
2015,07,08,05,31,12.80
2015,07,08,05,32,12.80
2015,07,08,05,33,12.80
2015,07,08,05,34,12.80
2015,07,08,05,35,12.80
2015,07,08,05,36,12.80
2015,07,08,05,37,12.80
2015,07,08,05,38,12.80
2015,07,08,05,39,12.70
2015,07,08,05,40,12.80
2015,07,08,05,41,12.70
2015,07,08,05,42,12.70
2015,07,08,05,43,12.70
2015,07,08,05,44,12.70
2015,07,08,05,45,12.70
2015,07,08,05,46,12.70
2015,07,08,05,47,12.70
2015,07,08,05,48,12.70
2015,07,08,05,49,12.70
2015,07,08,05,50,12.70
2015,07,08,05,51,12.70
2015,07,08,05,52,12.70
2015,07,08,05,53,12.70
2015,07,08,05,54,12.70
2015,07,08,05,55,12.70
2015,07,08,05,56,12.70
2015,07,08,05,57,12.70
2015,07,08,05,58,12.70
2015,07,08,05,59,12.70
2015,07,08,06,00,12.80
2015,07,08,06,01,12.80
2015,07,08,06,02,12.80
2015,07,08,06,03,12.80
2015,07,08,06,04,12.80
2015,07,08,06,05,12.80
2015,07,08,06,06,12.80
2015,07,08,06,07,12.80
2015,07,08,06,08,12.80
2015,07,08,06,09,12.80
2015,07,08,06,10,12.80
2015,07,08,06,11,12.80
2015,07,08,06,12,12.80
2015,07,08,06,13,12.80
2015,07,08,06,14,12.80
2015,07,08,06,15,12.80
2015,07,08,06,16,12.90
2015,07,08,06,17,12.90
2015,07,08,06,18,12.90
2015,07,08,06,19,12.90
2015,07,08,06,20,12.90
2015,07,08,06,21,12.90
2015,07,08,06,22,12.90
2015,07,08,06,23,12.90
2015,07,08,06,24,12.90
2015,07,08,06,25,12.90
2015,07,08,06,26,12.90
2015,07,08,06,27,12.90
2015,07,08,06,28,12.90
2015,07,08,06,29,12.90
2015,07,08,06,30,13.00
2015,07,08,06,31,13.00
2015,07,08,06,32,13.00
2015,07,08,06,33,13.00
2015,07,08,06,34,13.00
2015,07,08,06,35,13.00
2015,07,08,06,36,13.00
2015,07,08,06,37,13.00
2015,07,08,06,38,13.10
2015,07,08,06,39,13.10
2015,07,08,06,40,13.10
2015,07,08,06,41,13.10
2015,07,08,06,42,13.10
2015,07,08,06,43,13.20
2015,07,08,06,44,13.20
2015,07,08,06,45,13.20
2015,07,08,06,46,13.20
2015,07,08,06,47,13.20
2015,07,08,06,48,13.20
2015,07,08,06,49,13.20
2015,07,08,06,50,13.30
2015,07,08,06,51,13.30
2015,07,08,06,52,13.30
2015,07,08,06,53,13.30
2015,07,08,06,54,13.30
2015,07,08,06,55,13.30
2015,07,08,06,56,13.30
2015,07,08,06,57,13.40
2015,07,08,06,58,13.40
2015,07,08,06,59,13.40
2015,07,08,07,00,13.40
2015,07,08,07,01,13.50
2015,07,08,07,02,13.50
2015,07,08,07,03,13.60
2015,07,08,07,04,13.60
2015,07,08,07,05,13.60
2015,07,08,07,06,13.60
2015,07,08,07,07,13.70
2015,07,08,07,08,13.70
2015,07,08,07,09,13.70
2015,07,08,07,10,13.70
2015,07,08,07,11,13.70
2015,07,08,07,12,13.70
2015,07,08,07,13,13.80
2015,07,08,07,14,13.80
2015,07,08,07,15,13.80
2015,07,08,07,16,13.80
2015,07,08,07,17,13.80
2015,07,08,07,18,13.80
2015,07,08,07,19,13.80
2015,07,08,07,20,13.80
2015,07,08,07,21,13.90
2015,07,08,07,22,13.90
2015,07,08,07,23,13.90
2015,07,08,07,24,13.90
2015,07,08,07,25,14.00
2015,07,08,07,26,14.00
2015,07,08,07,27,14.00
2015,07,08,07,28,14.00
2015,07,08,07,29,14.10
2015,07,08,07,30,14.10
2015,07,08,07,31,14.10
2015,07,08,07,32,14.10
2015,07,08,07,33,14.20
2015,07,08,07,34,14.20
2015,07,08,07,35,14.20
2015,07,08,07,36,14.30
2015,07,08,07,37,14.30
2015,07,08,07,38,14.30
2015,07,08,07,39,14.40
2015,07,08,07,40,14.40
2015,07,08,07,41,14.40
2015,07,08,07,42,14.50
2015,07,08,07,43,14.50
2015,07,08,07,44,14.50
2015,07,08,07,45,14.60
2015,07,08,07,46,14.60
2015,07,08,07,47,14.60
2015,07,08,07,48,14.70
2015,07,08,07,49,14.70
2015,07,08,07,50,14.70
2015,07,08,07,51,14.70
2015,07,08,07,52,14.80
2015,07,08,07,53,14.80
2015,07,08,07,54,14.80
2015,07,08,07,55,14.90
2015,07,08,07,56,14.90
2015,07,08,07,57,14.90
2015,07,08,07,58,15.00
2015,07,08,07,59,15.00
2015,07,08,08,00,15.10
2015,07,08,08,01,15.10
2015,07,08,08,02,15.10
2015,07,08,08,03,15.20
2015,07,08,08,04,15.20
2015,07,08,08,05,15.30
2015,07,08,08,06,15.30
2015,07,08,08,07,15.30
2015,07,08,08,08,15.40
2015,07,08,08,09,15.40
2015,07,08,08,10,15.50
2015,07,08,08,11,15.50
2015,07,08,08,12,15.60
2015,07,08,08,13,15.60
2015,07,08,08,14,15.70
2015,07,08,08,15,15.70
2015,07,08,08,16,15.80
2015,07,08,08,17,15.80
2015,07,08,08,18,15.90
2015,07,08,08,19,15.90
2015,07,08,08,20,16.00
2015,07,08,08,21,16.00
2015,07,08,08,22,16.10
2015,07,08,08,23,16.10
2015,07,08,08,24,16.10
2015,07,08,08,25,16.20
2015,07,08,08,26,16.20
2015,07,08,08,27,16.20
2015,07,08,08,28,16.20
2015,07,08,08,29,16.30
2015,07,08,08,30,16.30
2015,07,08,08,31,16.40
2015,07,08,08,32,16.40
2015,07,08,08,33,16.50
2015,07,08,08,34,16.50
2015,07,08,08,35,16.60
2015,07,08,08,36,16.70
2015,07,08,08,37,16.70
2015,07,08,08,38,16.80
2015,07,08,08,39,16.80
2015,07,08,08,40,16.90
2015,07,08,08,41,17.00
2015,07,08,08,42,17.00
2015,07,08,08,43,17.10
2015,07,08,08,44,17.10
2015,07,08,08,45,17.20
2015,07,08,08,46,17.20
2015,07,08,08,47,17.20
2015,07,08,08,48,17.20
2015,07,08,08,49,17.20
2015,07,08,08,50,17.30
2015,07,08,08,51,17.30
2015,07,08,08,52,17.30
2015,07,08,08,53,17.30
2015,07,08,08,54,17.40
2015,07,08,08,55,17.40
2015,07,08,08,56,17.50
2015,07,08,08,57,17.50
2015,07,08,08,58,17.60
2015,07,08,08,59,17.60
2015,07,08,09,00,17.70
2015,07,08,09,01,17.70
2015,07,08,09,02,17.70
2015,07,08,09,03,17.80
2015,07,08,09,04,17.80
2015,07,08,09,05,17.90
2015,07,08,09,06,17.90
2015,07,08,09,07,18.00
2015,07,08,09,08,18.00
2015,07,08,09,09,18.10
2015,07,08,09,10,18.20
2015,07,08,09,11,18.20
2015,07,08,09,12,18.30
2015,07,08,09,13,18.30
2015,07,08,09,14,18.40
2015,07,08,09,15,18.40
2015,07,08,09,16,18.50
2015,07,08,09,17,18.60
2015,07,08,09,18,18.60
2015,07,08,09,19,18.70
2015,07,08,09,20,18.70
2015,07,08,09,21,18.70
2015,07,08,09,22,18.70
2015,07,08,09,23,18.70
2015,07,08,09,24,18.60
2015,07,08,09,25,18.50
2015,07,08,09,26,18.50
2015,07,08,09,27,18.40
2015,07,08,09,28,18.30
2015,07,08,09,29,18.30
2015,07,08,09,30,18.30
2015,07,08,09,31,18.30
2015,07,08,09,32,18.30
2015,07,08,09,33,18.30
2015,07,08,09,34,18.30
2015,07,08,09,35,18.30
2015,07,08,09,36,18.30
2015,07,08,09,37,18.30
2015,07,08,09,38,18.30
2015,07,08,09,39,18.30
2015,07,08,09,40,18.30
2015,07,08,09,41,18.30
2015,07,08,09,42,18.30
2015,07,08,09,43,18.40
2015,07,08,09,44,18.40
2015,07,08,09,45,18.40
2015,07,08,09,46,18.50
2015,07,08,09,47,18.50
2015,07,08,09,48,18.60
2015,07,08,09,49,18.60
2015,07,08,09,50,18.60
2015,07,08,09,51,18.70
2015,07,08,09,52,18.70
2015,07,08,09,53,18.80
2015,07,08,09,54,18.80
2015,07,08,09,55,18.90
2015,07,08,09,56,19.00
2015,07,08,09,57,19.10
2015,07,08,09,58,19.20
2015,07,08,09,59,19.30
2015,07,08,10,00,19.40
2015,07,08,10,01,19.50
2015,07,08,10,02,19.60
2015,07,08,10,03,19.70
2015,07,08,10,04,19.70
2015,07,08,10,05,19.60
2015,07,08,10,06,19.60
2015,07,08,10,07,19.60
2015,07,08,10,08,19.70
2015,07,08,10,09,19.70
2015,07,08,10,10,19.70
2015,07,08,10,11,19.70
2015,07,08,10,12,19.70
2015,07,08,10,13,19.70
2015,07,08,10,14,19.70
2015,07,08,10,15,19.70
2015,07,08,10,16,19.70
2015,07,08,10,17,19.80
2015,07,08,10,18,19.90
2015,07,08,10,19,20.10
2015,07,08,10,20,20.20
2015,07,08,10,21,20.40
2015,07,08,10,22,20.40
2015,07,08,10,23,20.50
2015,07,08,10,24,20.40
2015,07,08,10,25,20.40
2015,07,08,10,26,20.30
2015,07,08,10,27,20.30
2015,07,08,10,28,20.30
2015,07,08,10,29,20.20
2015,07,08,10,30,20.30
2015,07,08,10,31,20.30
2015,07,08,10,32,20.30
2015,07,08,10,33,20.40
2015,07,08,10,34,20.50
2015,07,08,10,35,20.60
2015,07,08,10,36,20.60
2015,07,08,10,37,20.70
2015,07,08,10,38,20.70
2015,07,08,10,39,20.80
2015,07,08,10,40,20.90
2015,07,08,10,41,21.00
2015,07,08,10,42,21.00
2015,07,08,10,43,21.00
2015,07,08,10,44,21.00
2015,07,08,10,45,21.00
2015,07,08,10,46,21.10
2015,07,08,10,47,21.10
2015,07,08,10,48,21.20
2015,07,08,10,49,21.30
2015,07,08,10,50,21.30
2015,07,08,10,51,21.30
2015,07,08,10,52,21.30
2015,07,08,10,53,21.20
2015,07,08,10,54,21.20
2015,07,08,10,55,21.20
2015,07,08,10,56,21.20
2015,07,08,10,57,21.30
2015,07,08,10,58,21.30
2015,07,08,10,59,21.40
2015,07,08,11,00,21.40
2015,07,08,11,01,21.40
2015,07,08,11,02,21.50
2015,07,08,11,03,21.50
2015,07,08,11,04,21.60
2015,07,08,11,05,21.60
2015,07,08,11,06,21.70
2015,07,08,11,07,21.80
2015,07,08,11,08,21.90
2015,07,08,11,09,21.90
2015,07,08,11,10,21.90
2015,07,08,11,11,21.80
2015,07,08,11,12,21.80
2015,07,08,11,13,21.80
2015,07,08,11,14,21.80
2015,07,08,11,15,21.90
2015,07,08,11,16,21.90
2015,07,08,11,17,21.90
2015,07,08,11,18,21.90
2015,07,08,11,19,21.90
2015,07,08,11,20,21.90
2015,07,08,11,21,21.90
2015,07,08,11,22,21.90
2015,07,08,11,23,21.80
2015,07,08,11,24,21.80
2015,07,08,11,25,21.80
2015,07,08,11,26,21.80
2015,07,08,11,27,21.80
2015,07,08,11,28,21.80
2015,07,08,11,29,21.90
2015,07,08,11,30,21.90
2015,07,08,11,31,21.90
2015,07,08,11,32,22.00
2015,07,08,11,33,22.00
2015,07,08,11,34,22.00
2015,07,08,11,35,22.00
2015,07,08,11,36,22.00
2015,07,08,11,37,22.00
2015,07,08,11,38,22.10
2015,07,08,11,39,22.20
2015,07,08,11,40,22.30
2015,07,08,11,41,22.30
2015,07,08,11,42,22.30
2015,07,08,11,43,22.20
2015,07,08,11,44,22.10
2015,07,08,11,45,22.10
2015,07,08,11,46,21.90
2015,07,08,11,47,21.90
2015,07,08,11,48,21.90
2015,07,08,11,49,22.00
2015,07,08,11,50,22.10
2015,07,08,11,51,22.20
2015,07,08,11,52,22.30
2015,07,08,11,53,22.30
2015,07,08,11,54,22.40
2015,07,08,11,55,22.50
2015,07,08,11,56,22.60
2015,07,08,11,57,22.80
2015,07,08,11,58,23.00
2015,07,08,11,59,23.10
2015,07,08,12,00,23.30
2015,07,08,12,01,23.50
2015,07,08,12,02,23.70
2015,07,08,12,03,23.80
2015,07,08,12,04,23.80
2015,07,08,12,05,23.80
2015,07,08,12,06,23.80
2015,07,08,12,07,23.80
2015,07,08,12,08,23.70
2015,07,08,12,09,23.60
2015,07,08,12,10,23.50
2015,07,08,12,11,23.40
2015,07,08,12,12,23.40
2015,07,08,12,13,23.40
2015,07,08,12,14,23.30
2015,07,08,12,15,23.30
2015,07,08,12,16,23.30
2015,07,08,12,17,23.30
2015,07,08,12,18,23.20
2015,07,08,12,19,23.20
2015,07,08,12,20,23.20
2015,07,08,12,21,23.30
2015,07,08,12,22,23.40
2015,07,08,12,23,23.60
2015,07,08,12,24,23.70
2015,07,08,12,25,23.90
2015,07,08,12,26,24.00
2015,07,08,12,27,24.10
2015,07,08,12,28,24.10
2015,07,08,12,29,24.10
2015,07,08,12,30,24.20
2015,07,08,12,31,24.30
2015,07,08,12,32,24.20
2015,07,08,12,33,24.20
2015,07,08,12,34,24.10
2015,07,08,12,35,24.00
2015,07,08,12,36,23.90
2015,07,08,12,37,23.80
2015,07,08,12,38,23.70
2015,07,08,12,39,23.70
2015,07,08,12,40,23.70
2015,07,08,12,41,23.80
2015,07,08,12,42,23.90
2015,07,08,12,43,23.80
2015,07,08,12,44,23.80
2015,07,08,12,45,23.80
2015,07,08,12,46,23.90
2015,07,08,12,47,24.10
2015,07,08,12,48,24.20
2015,07,08,12,49,24.40
2015,07,08,12,50,24.40
2015,07,08,12,51,24.40
2015,07,08,12,52,24.30
2015,07,08,12,53,24.20
2015,07,08,12,54,24.20
2015,07,08,12,55,24.20
2015,07,08,12,56,24.20
2015,07,08,12,57,24.20
2015,07,08,12,58,24.30
2015,07,08,12,59,24.50
2015,07,08,13,00,24.70
2015,07,08,13,01,24.70
2015,07,08,13,02,24.70
2015,07,08,13,03,24.60
2015,07,08,13,04,24.50
2015,07,08,13,05,24.50
2015,07,08,13,06,24.50
2015,07,08,13,07,24.40
2015,07,08,13,08,24.30
2015,07,08,13,09,24.30
2015,07,08,13,10,24.30
2015,07,08,13,11,24.30
2015,07,08,13,12,24.30
2015,07,08,13,13,24.30
2015,07,08,13,14,24.20
2015,07,08,13,15,24.20
2015,07,08,13,16,24.20
2015,07,08,13,17,24.30
2015,07,08,13,18,24.30
2015,07,08,13,19,24.30
2015,07,08,13,20,24.30
2015,07,08,13,21,24.30
2015,07,08,13,22,24.30
2015,07,08,13,23,24.30
2015,07,08,13,24,24.30
2015,07,08,13,25,24.40
2015,07,08,13,26,24.50
2015,07,08,13,27,24.50
2015,07,08,13,28,24.40
2015,07,08,13,29,24.30
2015,07,08,13,30,24.20
2015,07,08,13,31,24.20
2015,07,08,13,32,24.20
2015,07,08,13,33,24.20
2015,07,08,13,34,24.30
2015,07,08,13,35,24.40
2015,07,08,13,36,24.50
2015,07,08,13,37,24.60
2015,07,08,13,38,24.70
2015,07,08,13,39,24.80
2015,07,08,13,40,25.00
2015,07,08,13,41,25.20
2015,07,08,13,42,25.40
2015,07,08,13,43,25.50
2015,07,08,13,44,25.60
2015,07,08,13,45,25.60
2015,07,08,13,46,25.50
2015,07,08,13,47,25.50
2015,07,08,13,48,25.40
2015,07,08,13,49,25.30
2015,07,08,13,50,25.30
2015,07,08,13,51,25.20
2015,07,08,13,52,25.10
2015,07,08,13,53,25.10
2015,07,08,13,54,25.00
2015,07,08,13,55,24.90
2015,07,08,13,56,24.80
2015,07,08,13,57,24.80
2015,07,08,13,58,24.90
2015,07,08,13,59,25.10
2015,07,08,14,00,25.20
2015,07,08,14,01,25.40
2015,07,08,14,02,25.50
2015,07,08,14,03,25.60
2015,07,08,14,04,25.80
2015,07,08,14,05,25.90
2015,07,08,14,06,26.00
2015,07,08,14,07,26.10
2015,07,08,14,08,26.20
2015,07,08,14,09,26.30
2015,07,08,14,10,26.40
2015,07,08,14,11,26.50
2015,07,08,14,12,26.50
2015,07,08,14,13,26.60
2015,07,08,14,14,26.80
2015,07,08,14,15,26.90
2015,07,08,14,16,26.90
2015,07,08,14,17,26.80
2015,07,08,14,18,26.70
2015,07,08,14,19,26.50
2015,07,08,14,20,26.30
2015,07,08,14,21,26.20
2015,07,08,14,22,26.10
2015,07,08,14,23,26.00
2015,07,08,14,24,25.90
2015,07,08,14,25,25.80
2015,07,08,14,26,25.80
2015,07,08,14,27,25.80
2015,07,08,14,28,25.80
2015,07,08,14,29,25.80
2015,07,08,14,30,25.80
2015,07,08,14,31,25.80
2015,07,08,14,32,25.80
2015,07,08,14,33,25.80
2015,07,08,14,34,25.80
2015,07,08,14,35,25.80
2015,07,08,14,36,25.70
2015,07,08,14,37,25.70
2015,07,08,14,38,25.60
2015,07,08,14,39,25.50
2015,07,08,14,40,25.40
2015,07,08,14,41,25.40
2015,07,08,14,42,25.50
2015,07,08,14,43,25.50
2015,07,08,14,44,25.60
2015,07,08,14,45,25.50
2015,07,08,14,46,25.40
2015,07,08,14,47,25.40
2015,07,08,14,48,25.30
2015,07,08,14,49,25.20
2015,07,08,14,50,25.20
2015,07,08,14,51,25.20
2015,07,08,14,52,25.20
2015,07,08,14,53,25.30
2015,07,08,14,54,25.50
2015,07,08,14,55,25.50
2015,07,08,14,56,25.60
2015,07,08,14,57,25.60
2015,07,08,14,58,25.50
2015,07,08,14,59,25.50
2015,07,08,15,00,25.50
2015,07,08,15,01,25.40
2015,07,08,15,02,25.40
2015,07,08,15,03,25.30
2015,07,08,15,04,25.30
2015,07,08,15,05,25.30
2015,07,08,15,06,25.30
2015,07,08,15,07,25.30
2015,07,08,15,08,25.30
2015,07,08,15,09,25.40
2015,07,08,15,10,25.50
2015,07,08,15,11,25.50
2015,07,08,15,12,25.50
2015,07,08,15,13,25.40
2015,07,08,15,14,25.50
2015,07,08,15,15,25.60
2015,07,08,15,16,25.70
2015,07,08,15,17,25.80
2015,07,08,15,18,25.90
2015,07,08,15,19,26.10
2015,07,08,15,20,26.30
2015,07,08,15,21,26.50
2015,07,08,15,22,26.60
2015,07,08,15,23,26.70
2015,07,08,15,24,26.80
2015,07,08,15,25,26.80
2015,07,08,15,26,26.80
2015,07,08,15,27,26.80
2015,07,08,15,28,26.80
2015,07,08,15,29,26.80
2015,07,08,15,30,26.90
2015,07,08,15,31,26.90
2015,07,08,15,32,27.00
2015,07,08,15,33,27.10
2015,07,08,15,34,27.20
2015,07,08,15,35,27.40
2015,07,08,15,36,27.50
2015,07,08,15,37,27.60
2015,07,08,15,38,27.70
2015,07,08,15,39,27.80
2015,07,08,15,40,27.90
2015,07,08,15,41,28.00
2015,07,08,15,42,28.10
2015,07,08,15,43,28.20
2015,07,08,15,44,28.20
2015,07,08,15,45,28.30
2015,07,08,15,46,28.30
2015,07,08,15,47,28.40
2015,07,08,15,48,28.30
2015,07,08,15,49,28.20
2015,07,08,15,50,28.10
2015,07,08,15,51,28.00
2015,07,08,15,52,27.80
2015,07,08,15,53,27.50
2015,07,08,15,54,27.30
2015,07,08,15,55,27.10
2015,07,08,15,56,26.80
2015,07,08,15,57,26.70
2015,07,08,15,58,26.50
2015,07,08,15,59,26.40
2015,07,08,16,00,26.30
2015,07,08,16,01,26.20
2015,07,08,16,02,26.10
2015,07,08,16,03,26.00
2015,07,08,16,04,26.00
2015,07,08,16,05,26.00
2015,07,08,16,06,26.10
2015,07,08,16,07,26.10
2015,07,08,16,08,26.10
2015,07,08,16,09,26.20
2015,07,08,16,10,26.20
2015,07,08,16,11,26.20
2015,07,08,16,12,26.30
2015,07,08,16,13,26.30
2015,07,08,16,14,26.40
2015,07,08,16,15,26.40
2015,07,08,16,16,26.40
2015,07,08,16,17,26.40
2015,07,08,16,18,26.40
2015,07,08,16,19,26.40
2015,07,08,16,20,26.40
2015,07,08,16,21,26.40
2015,07,08,16,22,26.50
2015,07,08,16,23,26.60
2015,07,08,16,24,26.60
2015,07,08,16,25,26.60
2015,07,08,16,26,26.60
2015,07,08,16,27,26.50
2015,07,08,16,28,26.50
2015,07,08,16,29,26.40
2015,07,08,16,30,26.50
2015,07,08,16,31,26.50
2015,07,08,16,32,26.60
2015,07,08,16,33,26.70
2015,07,08,16,34,26.70
2015,07,08,16,35,26.60
2015,07,08,16,36,26.50
2015,07,08,16,37,26.50
2015,07,08,16,38,26.40
2015,07,08,16,39,26.30
2015,07,08,16,40,26.20
2015,07,08,16,41,26.20
2015,07,08,16,42,26.20
2015,07,08,16,43,26.10
2015,07,08,16,44,26.10
2015,07,08,16,45,26.00
2015,07,08,16,46,26.00
2015,07,08,16,47,25.90
2015,07,08,16,48,25.80
2015,07,08,16,49,25.80
2015,07,08,16,50,25.80
2015,07,08,16,51,25.70
2015,07,08,16,52,25.70
2015,07,08,16,53,25.70
2015,07,08,16,54,25.70
2015,07,08,16,55,25.70
2015,07,08,16,56,25.80
2015,07,08,16,57,25.80
2015,07,08,16,58,25.90
2015,07,08,16,59,25.90
2015,07,08,17,00,26.10
2015,07,08,17,01,26.20
2015,07,08,17,02,26.40
2015,07,08,17,03,26.60
2015,07,08,17,04,26.80
2015,07,08,17,05,26.90
2015,07,08,17,06,27.00
2015,07,08,17,07,27.10
2015,07,08,17,08,27.20
2015,07,08,17,09,27.20
2015,07,08,17,10,27.30
2015,07,08,17,11,27.20
2015,07,08,17,12,27.20
2015,07,08,17,13,27.20
2015,07,08,17,14,27.10
2015,07,08,17,15,27.10
2015,07,08,17,16,27.00
2015,07,08,17,17,27.00
2015,07,08,17,18,26.90
2015,07,08,17,19,26.80
2015,07,08,17,20,26.70
2015,07,08,17,21,26.60
2015,07,08,17,22,26.60